Location: Aubrey
(33.1990°N, 85.1361°W)
Time: 00:26:01
(UTC+00:00)

X-37B - Pass Details

Date: 21 September 2021
Orbit: 385 x 389 km, 45.0° (Epoch: 13 October)

Event Time Altitude Azimuth Distance (km) Brightness Sun altitude
Exits shadow 10:27:53 26° 277° (W) 811 1.6 -13.4°
Maximum altitude 10:29:14 41° 331° (NNW) 573 1.2 -13.1°
Drops below altitude 10° 10:32:16 10° 44° (NE) 1,413 4.2 -12.5°
Sets 10:34:25 0° 51° (NE) 2,270 5.6 -12.0°
